Fort Hood, TX

10:47 AM CST on December 12, 2019 (GMT -0600)
Killeen-Fort Hood Regional

Weather History for KGRK - November, 2019

Change the Weather History Date:

Thursday, November 14, 2019

  Actual Average Record
Temperature  
Mean Temperature 42 °F -  
Max Temperature 48 °F 66 °F 86 °F (2007)
Min Temperature 37 °F 48 °F 27 °F (2018)
Degree Days  
Heating Degree Days 22    
Moisture  
Dew Point 36 °F    
Average Humidity 86    
Maximum Humidity 93    
Minimum Humidity 58    
Precipitation  
Precipitation 0.05 in - - ()
Sea Level Pressure  
Sea Level Pressure 30.26 in    
Wind  
Wind Speed 3 mph (NNE)    
Max Wind Speed 13 mph    
Max Gust Speed -    
Visibility 7 miles    
Events Rain    
Averages and records for this station are not official NWS values.
T = Trace of Precipitation, MM = Missing Value Source: NWS Daily Summary

Daily Weather History Graph

Daily Weather History Graph

Search for Another Location

Airport or City:

Astronomy

Nov. 14, 2019 Rise Set
Actual Time 6:57 AM CST 5:33 PM CST
Civil Twilight 6:31 AM CST 5:59 PM CST
Nautical Twilight 6:02 AM CST 6:28 PM CST
Astronomical Twilight 5:33 AM CST 6:57 PM CST
Moon 7:25 PM CST (11/14) 8:49 AM CST (11/14)
Length of Visible Light 11h 27m
Length of Day
10h 36m
Waning Gibbous, 95% of the Moon is Illuminated
Nov 14
Waning Gibbous
Nov 19
Last Quarter
Nov 26
New
Dec 4
First Quarter
Dec 11
Full

Hourly Weather History & Observations

Time (CST) Temp. Windchill Dew Point Humidity Pressure Visibility Wind Dir Wind Speed Gust Speed Precip Events Conditions
12:43 AM 37.4 °F 34.9 °F 33.8 °F 87% 30.14 in 10.0 mi SSE 3.5 mph - N/A   Overcast
12:58 AM 38.1 °F 35.7 °F 34.0 °F 85% 30.14 in 10.0 mi SE 3.5 mph - N/A   Overcast
1:18 AM 39.2 °F - 33.8 °F 81% 30.14 in 10.0 mi Calm Calm - N/A   Overcast
1:28 AM 39.2 °F - 33.8 °F 81% 30.15 in 10.0 mi Calm Calm - N/A   Overcast
1:58 AM 38.7 °F - 33.8 °F 83% 30.15 in 10.0 mi Calm Calm - N/A   Overcast
2:38 AM 39.2 °F 35.0 °F 33.8 °F 81% 30.14 in 10.0 mi SE 5.8 mph - N/A   Overcast
2:53 AM 39.2 °F 35.9 °F 32.0 °F 75% 30.14 in 10.0 mi ESE 4.6 mph - N/A   Overcast
2:58 AM 39.2 °F 37.0 °F 32.0 °F 75% 30.14 in 10.0 mi ESE 3.5 mph - N/A   Overcast
3:58 AM 38.8 °F - 31.5 °F 75% 30.16 in 10.0 mi Calm Calm - N/A   Overcast
4:13 AM 39.2 °F - 30.2 °F 70% 30.17 in 10.0 mi Calm Calm - N/A   Overcast
4:48 AM 39.2 °F - 32.0 °F 75% 30.18 in 10.0 mi Calm Calm - N/A   Overcast
4:58 AM 39.2 °F - 31.3 °F 73% 30.18 in 10.0 mi Calm Calm - N/A   Overcast
5:13 AM 39.2 °F - 32.0 °F 75% 30.18 in 10.0 mi Calm Calm - N/A   Overcast
5:58 AM 39.6 °F - 31.1 °F 72% 30.19 in 10.0 mi Calm Calm - N/A   Overcast
6:12 AM 39.2 °F - 32.0 °F 75% 30.20 in 10.0 mi Calm Calm - N/A   Overcast
6:32 AM 39.2 °F - 33.8 °F 81% 30.21 in 10.0 mi Calm Calm - N/A   Overcast
6:52 AM 37.4 °F 34.9 °F 35.6 °F 93% 30.22 in 10.0 mi SE 3.5 mph - N/A   Overcast
6:58 AM 37.9 °F 35.5 °F 35.1 °F 89% 30.22 in 10.0 mi ESE 3.5 mph - N/A   Overcast
7:12 AM 37.4 °F 34.9 °F 35.6 °F 93% 30.23 in 10.0 mi ESE 3.5 mph - N/A Rain Light Rain
7:19 AM 37.4 °F - 35.6 °F 93% 30.23 in 9.0 mi Calm Calm - N/A Rain Light Rain
7:29 AM 37.4 °F - 35.6 °F 93% 30.24 in 8.0 mi Calm Calm - N/A Rain Light Rain
7:39 AM 37.4 °F - 35.6 °F 93% 30.23 in 2.2 mi Calm Calm - N/A Rain Light Rain
7:56 AM 37.4 °F - 35.6 °F 93% 30.24 in 10.0 mi Calm Calm - N/A   Overcast
7:58 AM 37.6 °F - 35.4 °F 92% 30.24 in 10.0 mi Calm Calm - 0.02 in   Overcast
8:03 AM 37.4 °F 34.9 °F 35.6 °F 93% 30.25 in 5.0 mi ENE 3.5 mph - N/A   Overcast
8:08 AM 37.4 °F 34.9 °F 35.6 °F 93% 30.25 in 5.0 mi East 3.5 mph - N/A   Overcast
8:25 AM 37.4 °F - 35.6 °F 93% 30.27 in 4.0 mi Calm Calm - N/A Rain Light Rain
8:35 AM 37.4 °F - 35.6 °F 93% 30.27 in 3.0 mi Calm Calm - N/A Rain Light Rain
8:40 AM 37.4 °F - 35.6 °F 93% 30.27 in 2.8 mi Calm Calm - N/A Rain Light Rain
8:50 AM 39.2 °F 37.0 °F 37.4 °F 93% 30.26 in 3.0 mi NNE 3.5 mph - N/A Rain Light Rain
8:55 AM 39.2 °F 35.9 °F 37.4 °F 93% 30.26 in 4.0 mi NNE 4.6 mph - N/A Rain Light Rain
8:58 AM 38.5 °F 35.0 °F 36.5 °F 93% 30.26 in 4.0 mi NNE 4.6 mph - 0.00 in Rain Light Rain
9:33 AM 39.2 °F 37.0 °F 37.4 °F 93% 30.28 in 3.0 mi NNE 3.5 mph - N/A Rain Light Rain
9:38 AM 39.2 °F 37.0 °F 37.4 °F 93% 30.29 in 2.8 mi NE 3.5 mph - N/A Rain Light Rain
9:53 AM 39.2 °F 35.0 °F 37.4 °F 93% 30.29 in 3.0 mi North 5.8 mph - N/A Rain Light Rain
9:58 AM 39.2 °F 35.0 °F 37.2 °F 93% 30.30 in 3.0 mi North 5.8 mph - 0.02 in Rain Light Rain
10:03 AM 39.2 °F 37.0 °F 37.4 °F 93% 30.30 in 3.0 mi North 3.5 mph - N/A Rain Light Rain
10:08 AM 39.2 °F 35.9 °F 37.4 °F 93% 30.30 in 2.5 mi NNE 4.6 mph - N/A Rain Light Rain
10:18 AM 39.2 °F 35.0 °F 37.4 °F 93% 30.30 in 2.5 mi North 5.8 mph - N/A Rain Light Rain
10:23 AM 41.0 °F 37.1 °F 39.2 °F 93% 30.30 in 3.0 mi North 5.8 mph - N/A Rain Light Rain
10:38 AM 41.0 °F 35.8 °F 39.2 °F 93% 30.31 in 4.0 mi North 8.1 mph - N/A Rain Light Rain
10:48 AM 41.0 °F 35.8 °F 39.2 °F 93% 30.31 in 5.0 mi North 8.1 mph - N/A Rain Light Rain
10:51 AM 41.0 °F 35.8 °F 39.2 °F 93% 30.31 in 5.0 mi North 8.1 mph - N/A Rain Light Rain
10:58 AM 40.6 °F 35.4 °F 38.7 °F 93% 30.31 in 5.0 mi North 8.1 mph - 0.01 in Rain Light Rain
11:05 AM 41.0 °F 35.2 °F 39.2 °F 93% 30.31 in 5.0 mi North 9.2 mph - N/A   Overcast
11:06 AM 41.0 °F 35.2 °F 39.2 °F 93% 30.31 in 6.0 mi North 9.2 mph - N/A Rain Light Rain
11:16 AM 41.0 °F 34.7 °F 39.2 °F 93% 30.31 in 4.0 mi North 10.4 mph - N/A Rain Light Rain
11:26 AM 41.0 °F 33.9 °F 39.2 °F 93% 30.32 in 2.8 mi North 12.7 mph - N/A Rain Light Rain
11:40 AM 41.0 °F 34.3 °F 39.2 °F 93% 30.32 in 2.8 mi NNE 11.5 mph - N/A   Overcast
11:45 AM 41.0 °F 33.9 °F 39.2 °F 93% 30.32 in 3.0 mi North 12.7 mph - N/A   Overcast
11:48 AM 41.0 °F 34.3 °F 39.2 °F 93% 30.31 in 4.0 mi North 11.5 mph - N/A Rain Light Rain
12:03 PM 41.0 °F 34.7 °F 39.2 °F 93% 30.32 in 2.0 mi North 10.4 mph - N/A Rain Light Rain
12:05 PM 41.0 °F 35.8 °F 39.2 °F 93% 30.31 in 2.2 mi North 8.1 mph - N/A   Overcast
12:08 PM 41.0 °F 34.7 °F 39.2 °F 93% 30.31 in 3.0 mi North 10.4 mph - N/A Rain Light Rain
12:17 PM 41.0 °F 34.7 °F 39.2 °F 93% 30.31 in 2.2 mi NNE 10.4 mph - N/A   Overcast
12:27 PM 41.0 °F 35.8 °F 39.2 °F 93% 30.31 in 4.0 mi North 8.1 mph - N/A   Overcast
12:58 PM 41.7 °F 38.0 °F 39.0 °F 90% 30.31 in 8.0 mi North 5.8 mph - 0.00 in   Overcast
1:58 PM 43.7 °F - 39.0 °F 84% 30.31 in 6.0 mi Calm Calm - N/A   Haze
2:53 PM 46.4 °F 43.5 °F 35.6 °F 66% 30.30 in 6.0 mi North 5.8 mph - N/A   Haze
2:58 PM 45.9 °F 43.6 °F 36.5 °F 70% 30.30 in 7.0 mi NNE 4.6 mph - N/A   Overcast
3:58 PM 48.2 °F - 34.2 °F 58% 30.28 in 8.0 mi NE 4.6 mph - N/A   Mostly Cloudy
4:58 PM 48.6 °F - 34.9 °F 59% 30.30 in 9.0 mi Calm Calm - N/A   Clear
5:58 PM 42.8 °F - 36.1 °F 77% 30.31 in 9.0 mi Calm Calm - N/A   Clear
6:58 PM 39.0 °F 36.8 °F 35.2 °F 86% 30.34 in 10.0 mi NW 3.5 mph - N/A   Clear
7:58 PM 37.6 °F - 34.9 °F 90% 30.35 in 10.0 mi Calm Calm - N/A   Clear
8:58 PM 37.8 °F 35.3 °F 34.3 °F 87% 30.37 in 10.0 mi WNW 3.5 mph - N/A   Clear
9:58 PM 38.5 °F 34.1 °F 34.0 °F 84% 30.39 in 10.0 mi WNW 5.8 mph - N/A   Clear
10:58 PM 40.6 °F 36.0 °F 30.6 °F 67% 30.40 in 10.0 mi WNW 6.9 mph - N/A   Clear
11:58 PM 38.8 °F 33.8 °F 30.4 °F 72% 30.41 in 10.0 mi NNW 6.9 mph - N/A   Clear